{"data":{"norad_id":62294,"epoch":"2026-09-22T22:01:01.972416Z","epoch_age_seconds":103298,"freshness":"FRESH","line1":"1 62294U 24238E   26265.91738394 -.00000069  00000+0  52124-4 0  9990","line2":"2 62294  59.9142 335.1620 0022776  70.5125 289.8340 13.75198760 89355","mean_motion":13.7519876,"eccentricity":0.0022776,"inclination_deg":59.9142,"raan_deg":335.162,"arg_perigee_deg":70.5125,"mean_anomaly_deg":289.834,"bstar":5.2124e-5,"rev_number":8935,"period_min":104.71213630239,"perigee_km":964.20454290595,"apogee_km":997.72672722921,"semimajor_km":7359.1026350676,"source":"CELESTRAK","updated_at":"2026-09-23T09:00:21.347298Z"}}